Tracking 18945 objects as of 21-Jan-2018
HD Live streaming from Space Station
objects crossing your sky now

BREEZE-M R/B

Track BREEZE-M R/B now!


NORAD ID: 39164
Int'l Code: 2013-022B
Perigee: 5,711.0 km
Apogee: 34,380.0 km
Inclination: 17.8 °
Period: 712.2 minutes
Semi major axis: 26416 km
RCS: 15.2941 m2 (large)
Launch date: May 14, 2013
Source: Commonwealth of Independent States (former USSR) (CIS)
Launch site: TYURATAM MISSILE AND SPACE COMPLEX (TTMTR)

Note: This is a ROCKET BODY
aabbcc
Your satellite tracking list
Your tracking list is empty




NASA's NSSDC Master Catalog

Two Line Element Set (TLE):
1 39164U 13022B   18019.97812398 -.00000341 +00000-0 +00000-0 0  9996
2 39164 017.7550 256.1021 5426357 061.8718 342.1946 02.02204194034606
Source of the keplerian elements: AFSPC